Weather History for Corning, AR

Change the Weather History Date:

Friday, January 18, 2013

  Actual Average (KARG) Record (KARG)
Temperature  
Mean Temperature 36 °F -  
Max Temperature 46 °F 42 °F 57 °F (2014)
Min Temperature 26 °F 27 °F 6 °F (2003)
Degree Days  
Heating Degree Days 29    
Moisture  
Dew Point 29 °F    
Average Humidity 77    
Maximum Humidity 100    
Minimum Humidity 57    
Precipitation  
Precipitation 0.00 in - - ()
Sea Level Pressure  
Sea Level Pressure 30.46 in    
Wind  
Wind Speed 5 mph (SSW)    
Max Wind Speed 13 mph    
Max Gust Speed -    
Visibility 10 miles    
Events      
Averages and records for this station are not official NWS values.
T = Trace of Precipitation, MM = Missing Value Source: NWS Daily Summary

Daily Weather History Graph

Daily Weather History Graph

Search for Another Location

Airport:

Trip Planner

Search our weather history database for the weather conditions in past years. The results will help you decide how hot, cold, wet, or windy it might be!

Date:

Astronomy

Jan. 18, 2013 Rise Set
Actual Time 7:12 AM CST 5:14 PM CST
Civil Twilight 6:44 AM CST 5:42 PM CST
Nautical Twilight 6:12 AM CST 6:13 PM CST
Astronomical Twilight 5:42 AM CST 6:44 PM CST
Moon 11:04 AM CST (1/18) No Moon Set
Length of Visible Light 10h 57m
Length of Day
10h 02m
Waxing Crescent, 47% of the Moon is Illuminated
Jan 18
Waxing Crescent
Jan 18
First Quarter
Jan 26
Full
Feb 3
Last Quarter
Feb 10
New

Hourly Weather History & Observations

Time (CST) Temp. Windchill Dew Point Humidity Pressure Visibility Wind Dir Wind Speed Gust Speed Precip Events Conditions
12:15 AM 32.0 °F 28.7 °F 24.8 °F 75% 30.53 in 10.0 mi NNE 3.5 mph - N/A   Clear
12:35 AM 32.0 °F 27.5 °F 24.8 °F 75% 30.53 in 10.0 mi NNE 4.6 mph - N/A   Clear
12:55 AM 32.0 °F 26.4 °F 24.8 °F 75% 30.53 in 10.0 mi NNE 5.8 mph - N/A   Clear
1:15 AM 32.0 °F 26.4 °F 24.8 °F 75% 30.54 in 10.0 mi NNE 5.8 mph - N/A   Clear
1:35 AM 32.0 °F 27.5 °F 24.8 °F 75% 30.54 in 10.0 mi NNE 4.6 mph - N/A   Clear
1:55 AM 32.0 °F 28.7 °F 24.8 °F 75% 30.54 in 10.0 mi NE 3.5 mph - N/A   Clear
2:15 AM 30.2 °F - 24.8 °F 80% 30.55 in 10.0 mi Calm Calm - N/A   Clear
2:35 AM 28.4 °F - 26.6 °F 93% 30.55 in 10.0 mi Calm Calm - N/A   Clear
2:55 AM 28.4 °F 24.6 °F 24.8 °F 86% 30.55 in 10.0 mi NNW 3.5 mph - N/A   Clear
3:15 AM 28.4 °F 24.6 °F 24.8 °F 86% 30.55 in 10.0 mi North 3.5 mph - N/A   Clear
3:35 AM 28.4 °F 23.3 °F 26.6 °F 93% 30.55 in 10.0 mi North 4.6 mph - N/A   Clear
3:55 AM 28.4 °F 24.6 °F 26.6 °F 93% 30.55 in 10.0 mi North 3.5 mph - N/A   Clear
4:15 AM 28.4 °F - 26.6 °F 93% 30.54 in 10.0 mi Calm Calm - N/A   Clear
4:35 AM 28.4 °F - 26.6 °F 93% 30.54 in 10.0 mi Calm Calm - N/A   Clear
4:55 AM 26.6 °F 22.6 °F 26.6 °F 100% 30.54 in 10.0 mi WNW 3.5 mph - N/A   Clear
5:15 AM 26.6 °F 22.6 °F 26.6 °F 100% 30.54 in 10.0 mi West 3.5 mph - N/A   Clear
5:35 AM 26.6 °F - 24.8 °F 93% 30.54 in 10.0 mi Calm Calm - N/A   Clear
5:55 AM 26.6 °F - 26.6 °F 100% 30.55 in 10.0 mi Calm Calm - N/A   Clear
6:15 AM 26.6 °F - 24.8 °F 93% 30.55 in 10.0 mi Calm Calm - N/A   Clear
6:35 AM 26.6 °F 22.6 °F 24.8 °F 93% 30.55 in 10.0 mi West 3.5 mph - N/A   Clear
6:55 AM 26.6 °F 21.2 °F 24.8 °F 93% 30.55 in 10.0 mi West 4.6 mph - N/A   Clear
7:15 AM 26.6 °F - 24.8 °F 93% 30.55 in 10.0 mi Calm Calm - N/A   Clear
7:35 AM 26.6 °F - 24.8 °F 93% 30.56 in 10.0 mi Calm Calm - N/A   Clear
7:55 AM 28.4 °F - 26.6 °F 93% 30.56 in 10.0 mi Calm Calm - N/A   Clear
8:15 AM 30.2 °F - 26.6 °F 86% 30.56 in 10.0 mi Calm Calm - N/A   Clear
8:35 AM 32.0 °F - 26.6 °F 80% 30.56 in 10.0 mi Calm Calm - N/A   Clear
8:55 AM 32.0 °F 28.7 °F 26.6 °F 80% 30.56 in 10.0 mi SE 3.5 mph - N/A   Clear
9:15 AM 32.0 °F 28.7 °F 26.6 °F 80% 30.56 in 10.0 mi SE 3.5 mph - N/A   Clear
9:35 AM 33.8 °F 27.7 °F 28.4 °F 81% 30.57 in 10.0 mi SE 6.9 mph - N/A   Clear
9:55 AM 35.6 °F 30.7 °F 26.6 °F 70% 30.57 in 10.0 mi SE 5.8 mph - N/A   Clear
10:15 AM 35.6 °F 29.9 °F 26.6 °F 70% 30.56 in 10.0 mi SE 6.9 mph - N/A   Clear
10:35 AM 37.4 °F 32.8 °F 26.6 °F 65% 30.56 in 10.0 mi SE 5.8 mph - N/A   Clear
10:55 AM 37.4 °F 32.1 °F 26.6 °F 65% 30.54 in 10.0 mi SE 6.9 mph - N/A   Clear
11:15 AM 37.4 °F 32.1 °F 26.6 °F 65% 30.53 in 10.0 mi SE 6.9 mph - N/A   Clear
11:35 AM 39.2 °F 35.0 °F 26.6 °F 61% 30.51 in 10.0 mi SE 5.8 mph - N/A   Clear
11:55 AM 41.0 °F 37.1 °F 28.4 °F 61% 30.50 in 10.0 mi South 5.8 mph - N/A   Clear
12:15 PM 41.0 °F 37.1 °F 28.4 °F 61% 30.48 in 10.0 mi SSW 5.8 mph - N/A   Clear
12:35 PM 42.8 °F 38.6 °F 28.4 °F 57% 30.47 in 9.0 mi SSW 6.9 mph - N/A   Clear
12:55 PM 44.6 °F 40.2 °F 30.2 °F 57% 30.46 in 5.0 mi SSW 8.1 mph - N/A   Haze
1:15 PM 44.6 °F 40.2 °F 30.2 °F 57% 30.45 in 2.0 mi South 8.1 mph - N/A   Haze
1:35 PM 44.6 °F 40.2 °F 32.0 °F 61% 30.44 in 10.0 mi South 8.1 mph - N/A   Clear
1:55 PM 44.6 °F 38.4 °F 32.0 °F 61% 30.43 in 10.0 mi SSW 12.7 mph - N/A   Clear
2:15 PM 46.4 °F 40.7 °F 32.0 °F 57% 30.42 in 10.0 mi SSW 12.7 mph - N/A   Clear
2:35 PM 46.4 °F 41.1 °F 32.0 °F 57% 30.41 in 10.0 mi SSW 11.5 mph - N/A   Clear
2:55 PM 46.4 °F 41.5 °F 33.8 °F 62% 30.40 in 10.0 mi SSW 10.4 mph - N/A   Clear
3:15 PM 46.4 °F 41.5 °F 35.6 °F 66% 30.39 in 10.0 mi SSW 10.4 mph - N/A   Clear
3:35 PM 46.4 °F 41.9 °F 35.6 °F 66% 30.39 in 10.0 mi SW 9.2 mph - N/A   Clear
3:55 PM 46.4 °F 41.9 °F 35.6 °F 66% 30.38 in 10.0 mi SW 9.2 mph - N/A   Clear
4:15 PM 46.4 °F 41.9 °F 35.6 °F 66% 30.38 in 10.0 mi SW 9.2 mph - N/A   Clear
4:35 PM 44.6 °F 39.2 °F 35.6 °F 71% 30.37 in 10.0 mi SW 10.4 mph - N/A   Clear
4:55 PM 42.8 °F 37.5 °F 33.8 °F 70% 30.37 in 10.0 mi SSW 9.2 mph - N/A   Clear
5:15 PM 41.0 °F 34.7 °F 33.8 °F 76% 30.37 in 10.0 mi SSW 10.4 mph - N/A   Clear
5:55 PM 39.2 °F 33.0 °F 32.0 °F 75% 30.36 in 10.0 mi South 9.2 mph - N/A   Clear
6:15 PM 41.0 °F 35.2 °F 32.0 °F 70% 30.36 in 10.0 mi South 9.2 mph - N/A   Clear
6:35 PM 39.2 °F 32.5 °F 32.0 °F 75% 30.36 in 10.0 mi South 10.4 mph - N/A   Clear
6:55 PM 39.2 °F 33.0 °F 33.8 °F 81% 30.35 in 10.0 mi South 9.2 mph - N/A   Clear
7:15 PM 39.2 °F 32.5 °F 33.8 °F 81% 30.35 in 10.0 mi South 10.4 mph - N/A   Clear
7:35 PM 39.2 °F 32.0 °F 33.8 °F 81% 30.35 in 10.0 mi South 11.5 mph - N/A   Clear
7:55 PM 39.2 °F 31.6 °F 33.8 °F 81% 30.34 in 10.0 mi South 12.7 mph - N/A   Clear
8:15 PM 39.2 °F 31.6 °F 33.8 °F 81% 30.34 in 10.0 mi South 12.7 mph - N/A   Clear
8:35 PM 39.2 °F 32.0 °F 32.0 °F 75% 30.34 in 10.0 mi South 11.5 mph - N/A   Clear
8:55 PM 37.4 °F 30.3 °F 32.0 °F 81% 30.33 in 10.0 mi South 10.4 mph - N/A   Clear
9:15 PM 37.4 °F 30.3 °F 32.0 °F 81% 30.33 in 10.0 mi South 10.4 mph - N/A   Clear
9:35 PM 37.4 °F 29.3 °F 32.0 °F 81% 30.32 in 10.0 mi SSW 12.7 mph - N/A   Clear
9:55 PM 37.4 °F 30.3 °F 32.0 °F 81% 30.32 in 10.0 mi SSW 10.4 mph - N/A   Clear
10:15 PM 35.6 °F 28.6 °F 32.0 °F 87% 30.32 in 10.0 mi SSW 9.2 mph - N/A   Clear
10:55 PM 37.4 °F 29.8 °F 32.0 °F 81% 30.31 in 10.0 mi SSW 11.5 mph - N/A   Clear
11:15 PM 37.4 °F 29.3 °F 32.0 °F 81% 30.30 in 10.0 mi SSW 12.7 mph - N/A   Clear
11:55 PM 37.4 °F 29.3 °F 32.0 °F 81% 30.30 in 10.0 mi SSW 12.7 mph - N/A   Clear